FW1419 Weather Reports


Display with metric or nautical units.
time (UTC)temp
F
wind
direction
speed
MPH
gust
MPH
rain 1hr
in
rain 24hr
in
rain mn
in
humidity
%
barometer
mb
20190619010819 81 250 3.0 11.0 0.00 0.00 0.00 48 1013.2
20190619010321 82 255 4.0 12.0 0.00 0.00 0.00 48 1013.2
20190619005824 82 257 4.0 12.0 0.00 0.00 0.00 48 1013.2
20190619005326 82 240 6.0 9.0 0.00 0.00 0.00 48 1013.2
20190619004829 82 259 4.0 10.0 0.00 0.00 0.00 47 1013.2
20190619004332 82 214 3.0 10.0 0.00 0.00 0.00 47 1013.2
20190619003835 82 248 4.0 9.0 0.00 0.00 0.00 47 1013.1
20190619003320 83 264 4.0 11.0 0.00 0.00 0.00 47 1013.1
20190619002827 83 279 2.0 11.0 0.00 0.00 0.00 47 1013.1
20190619002330 83 219 4.0 11.0 0.00 0.00 0.00 47 1013.0
20190619001831 83 182 3.0 10.0 0.00 0.00 0.00 46 1013.0
20190619001338 83 209 4.0 10.0 0.00 0.00 0.00 46 1013.0
20190619000838 84 247 3.0 10.0 0.00 0.00 0.00 46 1013.0
20190619000319 84 163 4.0 7.0 0.00 0.00 0.00 46 1013.0
20190618235821 83 242 5.0 10.0 0.00 0.00 0.00 45 1013.0
20190618235327 83 247 3.0 10.0 0.00 0.00 0.00 45 1013.1
20190618234829 84 243 3.0 10.0 0.00 0.00 0.00 45 1013.1
20190618234331 84 220 4.0 10.0 0.00 0.00 0.00 46 1013.1
20190618233833 84 246 4.0 12.0 0.00 0.00 0.00 45 1013.1
20190618233321 84 228 8.0 12.0 0.00 0.00 0.00 45 1013.1
20190618232823 84 265 3.0 11.0 0.00 0.00 0.00 44 1013.1
20190618232328 84 277 4.0 9.0 0.00 0.00 0.00 45 1013.2
20190618231832 84 265 3.0 10.0 0.00 0.00 0.00 45 1013.2
20190618231335 84 288 5.0 10.0 0.00 0.00 0.00 45 1013.2
20190618230838 84 246 5.0 9.0 0.00 0.00 0.00 44 1013.1
20190618230321 85 263 2.0 12.0 0.00 0.00 0.00 44 1013.1
20190618225826 85 267 4.0 13.0 0.00 0.00 0.00 43 1013.1
20190618225329 85 221 6.0 14.0 0.00 0.00 0.00 43 1013.3
20190618224831 85 232 7.0 14.0 0.00 0.00 0.00 43 1013.3
20190618224334 85 273 3.0 7.0 0.00 0.00 0.00 44 1013.3
20190618223820 85 252 4.0 6.0 0.00 0.00 0.00 43 1013.3
20190618223322 85 281 4.0 12.0 0.00 0.00 0.00 42 1013.3
20190618222827 85 279 1.0 12.0 0.00 0.00 0.00 42 1013.3
20190618222330 85 258 5.0 10.0 0.00 0.00 0.00 41 1013.2
20190618221835 86 205 4.0 9.0 0.00 0.00 0.00 41 1013.2
20190618221318 86 279 5.0 9.0 0.00 0.00 0.00 41 1013.2
20190618220823 86 219 1.0 7.0 0.00 0.00 0.00 41 1013.6
20190618220326 86 298 2.0 7.0 0.00 0.00 0.00 41 1013.6
20190618215831 85 273 2.0 9.0 0.00 0.00 0.00 43 1013.6
20190618215334 84 269 2.0 9.0 0.00 0.00 0.00 43 1013.6
20190618214819 84 289 1.0 10.0 0.00 0.00 0.00 43 1013.6
20190618214327 84 267 6.0 10.0 0.00 0.00 0.00 42 1013.6
20190618213834 85 277 5.0 12.0 0.00 0.00 0.00 42 1013.7
20190618213316 84 261 6.0 12.0 0.00 0.00 0.00 42 1013.7
20190618212822 84 226 5.0 11.0 0.00 0.00 0.00 42 1013.7
20190618212325 84 267 7.0 11.0 0.00 0.00 0.00 42 1013.9
20190618211830 84 280 2.0 11.0 0.00 0.00 0.00 43 1013.9
20190618211336 84 241 3.0 7.0 0.00 0.00 0.00 43 1013.9
20190618210820 84 252 2.0 10.0 0.00 0.00 0.00 42 1013.8
20190618210328 84 259 5.0 10.0 0.00 0.00 0.00 42 1013.8
20190618205832 84 267 4.0 9.0 0.00 0.00 0.00 42 1013.8
20190618205319 84 246 3.0 11.0 0.00 0.00 0.00 42 1013.8
20190618204822 84 259 3.0 11.0 0.00 0.00 0.00 42 1013.8
20190618204325 84 229 1.0 6.0 0.00 0.00 0.00 42 1013.8
20190618203826 84 292 4.0 6.0 0.00 0.00 0.00 41 1014.1
20190618203332 83 254 0.0 12.0 0.00 0.00 0.00 43 1014.1
20190618202834 83 268 3.0 12.0 0.00 0.00 0.00 43 1014.1
20190618202319 83 248 2.0 10.0 0.00 0.00 0.00 43 1014.0
20190618201824 83 258 3.0 10.0 0.00 0.00 0.00 43 1014.0
20190618201326 83 220 3.0 10.0 0.00 0.00 0.00 41 1014.0
20190618200827 84 269 4.0 10.0 0.00 0.00 0.00 41 1014.4
20190618200333 83 279 2.0 8.0 0.00 0.00 0.00 41 1014.4
20190618195822 82 288 3.0 10.0 0.00 0.00 0.00 42 1014.4
20190618195325 82 247 2.0 10.0 0.00 0.00 0.00 42 1014.4
20190618194828 82 209 2.0 10.0 0.00 0.00 0.00 43 1014.4
20190618194330 82 210 6.0 10.0 0.00 0.00 0.00 42 1014.4
20190618193832 81 277 4.0 6.0 0.00 0.00 0.00 44 1014.4
20190618193335 81 283 3.0 6.0 0.00 0.00 0.00 43 1014.4
20190618192836 82 259 3.0 6.0 0.00 0.00 0.00 43 1014.4
20190618192338 81 228 2.0 7.0 0.00 0.00 0.00 45 1014.7
20190618191820 80 168 3.0 7.0 0.00 0.00 0.00 46 1014.7
20190618191321 79 191 1.0 6.0 0.00 0.00 0.00 47 1014.7
20190618190823 79 267 4.0 6.0 0.00 0.00 0.00 47 1014.8
20190618190325 79 254 3.0 6.0 0.00 0.00 0.00 46 1014.8
20190618185834 80 235 2.0 6.0 0.00 0.00 0.00 48 1014.8
20190618185337 78 257 2.0 7.0 0.00 0.00 0.00 48 1014.1
20190618184838 78 252 2.0 7.0 0.00 0.00 0.00 48 1014.1
20190618184320 78 221 1.0 7.0 0.00 0.00 0.00 50 1014.1
20190618183823 77 252 1.0 7.0 0.00 0.00 0.00 52 1014.0
20190618183328 77 229 4.0 7.0 0.00 0.00 0.00 53 1014.0
20190618182835 77 248 4.0 6.0 0.00 0.00 0.00 53 1014.0
20190618182338 77 252 1.0 3.0 0.00 0.00 0.00 53 1014.3
20190618181838 76 230 2.0 3.0 0.00 0.00 0.00 54 1014.3
20190618181319 76 220 0.0 8.0 0.00 0.00 0.00 55 1014.3
20190618180824 76 220 0.0 8.0 0.00 0.00 0.00 55 1014.2
20190618180330 75 109 2.0 9.0 0.00 0.00 0.00 56 1014.2
20190618175831 75 225 5.0 9.0 0.00 0.00 0.00 55 1014.2
20190618175333 74 220 3.0 5.0 0.00 0.00 0.00 57 1014.2
20190618174835 74 209 1.0 5.0 0.00 0.00 0.00 60 1014.2
20190618174320 74 267 3.0 5.0 0.00 0.00 0.00 58 1014.2
20190618173823 74 237 2.0 3.0 0.00 0.00 0.00 58 1014.3
20190618173325 74 321 1.0 2.0 0.00 0.00 0.00 60 1014.3
20190618172827 73 298 0.0 3.0 0.00 0.00 0.00 60 1014.3
20190618172329 73 277 1.0 5.0 0.00 0.00 0.00 59 1014.2
20190618171831 73 241 2.0 5.0 0.00 0.00 0.00 61 1014.2
20190618171337 72 221 0.0 3.0 0.00 0.00 0.00 61 1014.2
20190618170823 72 260 0.0 3.0 0.00 0.00 0.00 64 1014.1
20190618170324 71 288 0.0 3.0 0.00 0.00 0.00 64 1014.1
20190618165826 70 258 0.0 5.0 0.00 0.00 0.00 66 1014.1
20190618165327 70 229 2.0 5.0 0.00 0.00 0.00 64 1014.2
20190618164832 70 9 0.0 4.0 0.00 0.00 0.00 66 1014.2
20190618164334 70 215 0.0 1.0 0.00 0.00 0.00 67 1014.2
20190618163839 69 17 0.0 2.0 0.00 0.00 0.00 67 1014.1
20190618163320 69 270 1.0 2.0 0.00 0.00 0.00 69 1014.1
20190618162823 68 56 0.0 1.0 0.00 0.00 0.00 70 1014.1
20190618162324 68 338 0.0 3.0 0.00 0.00 0.00 71 1014.4
20190618161826 68 226 1.0 2.0 0.00 0.00 0.00 70 1014.4
20190618161328 67 282 0.0 2.0 0.00 0.00 0.00 71 1014.4
20190618160834 67 304 0.0 4.0 0.00 0.00 0.00 72 1014.1
20190618160336 66 70 1.0 4.0 0.00 0.00 0.00 73 1014.1
20190618155837 66 46 2.0 3.0 0.00 0.00 0.00 73 1014.1
20190618155319 66 80 0.0 3.0 0.00 0.00 0.00 75 1014.3
20190618154821 66 49 1.0 3.0 0.00 0.00 0.00 74 1014.3
20190618154322 65 301 0.0 0.0 0.00 0.00 0.00 75 1014.3
20190618153828 65 28 0.0 0.0 0.00 0.00 0.00 76 1014.1
20190618153332 64 279 0.0 1.0 0.00 0.00 0.00 76 1014.1
20190618152835 64 35 0.0 2.0 0.00 0.00 0.00 76 1014.1
20190618152337 64 44 1.0 2.0 0.00 0.00 0.00 76 1014.2
20190618151820 64 328 0.0 2.0 0.00 0.00 0.00 78 1014.2
20190618151327 63 329 0.0 2.0 0.00 0.00 0.00 79 1014.2
20190618150830 63 284 0.0 1.0 0.00 0.00 0.00 79 1014.0
20190618150332 63 268 0.0 0.0 0.00 0.00 0.00 78 1014.0
20190618145833 64 51 0.0 0.0 0.00 0.00 0.00 79 1014.0
20190618145336 63 235 0.0 0.0 0.00 0.00 0.00 81 1014.0
20190618144839 63 31 0.0 0.0 0.00 0.00 0.00 81 1014.0
20190618144319 62 39 0.0 0.0 0.00 0.00 0.00 82 1014.0
20190618143821 62 41 0.0 0.0 0.00 0.00 0.00 83 1014.0
20190618143322 61 272 0.0 0.0 0.00 0.00 0.00 83 1014.0
20190618142824 61 271 0.0 0.0 0.00 0.00 0.00 83 1014.0
20190618142325 61 276 0.0 0.0 0.00 0.00 0.00 84 1013.9
20190618141830 61 223 0.0 0.0 0.00 0.00 0.00 85 1013.9
20190618141318 61 218 0.0 0.0 0.00 0.00 0.00 85 1013.9
20190618140823 60 149 0.0 0.0 0.00 0.00 0.00 87 1013.6
20190618140326 60 237 0.0 0.0 0.00 0.00 0.00 87 1013.6
20190618135831 59 240 0.0 0.0 0.00 0.00 0.00 87 1013.6
20190618135334 59 27 0.0 0.0 0.00 0.00 0.00 87 1013.5
20190618134820 59 132 0.0 0.0 0.00 0.00 0.00 88 1013.5
20190618134325 59 132 0.0 0.0 0.00 0.00 0.00 89 1013.5
20190618133830 59 132 0.0 0.0 0.00 0.00 0.00 89 1013.5
20190618133333 59 132 0.0 0.0 0.00 0.00 0.00 89 1013.5
20190618132834 59 121 0.0 3.0 0.00 0.00 0.00 89 1013.5
20190618132335 59 115 0.0 3.0 0.00 0.00 0.00 89 1013.5
20190618131820 59 98 0.0 2.0 0.00 0.00 0.00 89 1013.5
20190618131324 59 101 0.0 2.0 0.00 0.00 0.00 89 1013.5
20190618130825 59 128 0.0 1.0 0.00 0.00 0.00 90 1013.4
20190618130331 59 128 0.0 1.0 0.00 0.00 0.00 89 1013.4
20190618125834 59 157 0.0 0.0 0.00 0.00 0.00 89 1013.4
20190618125335 59 157 0.0 0.0 0.00 0.00 0.00 90 1013.1
20190618124837 59 157 0.0 0.0 0.00 0.00 0.00 89 1013.1
20190618124319 59 125 0.0 1.0 0.00 0.00 0.00 89 1013.1
20190618123821 59 153 0.0 1.0 0.00 0.00 0.00 90 1012.9
20190618123327 59 109 0.0 0.0 0.00 0.00 0.00 89 1012.9
20190618122832 59 88 0.0 0.0 0.00 0.00 0.00 89 1012.9
20190618122332 59 177 0.0 0.0 0.00 0.00 0.00 89 1012.8
20190618121839 59 176 0.0 0.0 0.00 0.00 0.00 89 1012.8
20190618121320 59 80 0.0 0.0 0.00 0.00 0.00 89 1012.8
20190618120824 59 80 0.0 0.0 0.00 0.00 0.00 89 1012.6
20190618120327 59 80 0.0 0.0 0.00 0.00 0.00 89 1012.6
20190618115829 59 80 0.0 0.0 0.00 0.00 0.00 89 1012.6
20190618115331 59 80 0.0 0.0 0.00 0.00 0.00 89 1012.5
20190618114836 59 80 0.0 0.0 0.00 0.00 0.00 89 1012.5
20190618114321 59 80 0.0 0.0 0.00 0.00 0.00 88 1012.5
20190618113826 59 80 0.0 0.0 0.00 0.00 0.00 88 1012.6
20190618113329 59 80 0.0 0.0 0.00 0.00 0.00 88 1012.6
20190618112830 58 42 0.0 0.0 0.00 0.00 0.00 88 1012.6
20190618112338 58 11 0.0 0.0 0.00 0.00 0.00 88 1012.5
20190618111820 58 297 0.0 0.0 0.00 0.00 0.00 88 1012.5
20190618111322 58 295 0.0 0.0 0.00 0.00 0.00 88 1012.5
20190618110824 58 295 0.0 0.0 0.00 0.00 0.00 89 1012.3
20190618110328 58 294 0.0 0.0 0.00 0.00 0.00 89 1012.3
20190618105830 58 294 0.0 0.0 0.00 0.00 0.00 89 1012.3
20190618105336 58 257 0.0 0.0 0.00 0.00 0.00 90 1012.2
20190618104822 57 257 0.0 0.0 0.00 0.00 0.00 90 1012.2
20190618104323 57 257 0.0 0.0 0.00 0.00 0.00 91 1012.2
20190618103829 57 257 0.0 0.0 0.00 0.00 0.00 91 1012.3
20190618103318 57 257 0.0 0.0 0.00 0.00 0.00 92 1012.3
20190618102823 57 257 0.0 0.0 0.00 0.00 0.00 92 1012.3
20190618102325 57 257 0.0 0.0 0.00 0.00 0.00 92 1012.2
20190618101828 57 257 0.0 0.0 0.00 0.00 0.00 92 1012.2
20190618101331 57 257 0.0 0.0 0.00 0.00 0.00 91 1012.2
20190618100832 57 257 0.0 0.0 0.00 0.00 0.00 91 1012.3
20190618100337 57 257 0.0 0.0 0.00 0.00 0.00 91 1012.3
20190618095839 57 257 0.0 0.0 0.00 0.00 0.00 91 1012.3
20190618095322 57 257 0.0 0.0 0.00 0.00 0.00 91 1012.3
20190618094823 57 257 0.0 0.0 0.00 0.00 0.00 91 1012.3
20190618094324 57 257 0.0 0.0 0.00 0.00 0.00 91 1012.3
20190618093827 57 257 0.0 0.0 0.00 0.00 0.00 90 1012.2
20190618093335 57 257 0.0 0.0 0.00 0.00 0.00 90 1012.2
20190618092816 57 257 0.0 0.0 0.00 0.00 0.00 89 1012.2
20190618092321 57 257 0.0 0.0 0.00 0.00 0.00 89 1012.2
20190618091824 57 257 0.0 0.0 0.00 0.00 0.00 89 1012.2
20190618091325 57 257 0.0 0.0 0.00 0.00 0.00 89 1012.2
20190618090827 58 257 0.0 0.0 0.00 0.00 0.00 89 1012.2
20190618090329 58 257 0.0 0.0 0.00 0.00 0.00 89 1012.2
20190618085831 58 257 0.0 0.0 0.00 0.00 0.00 89 1012.2
20190618085332 58 257 0.0 0.0 0.00 0.00 0.00 89 1012.2
20190618084834 58 257 0.0 0.0 0.00 0.00 0.00 89 1012.2
20190618084335 58 257 0.0 0.0 0.00 0.00 0.00 89 1012.2
20190618083822 58 257 0.0 0.0 0.00 0.00 0.00 89 1012.2
20190618083323 58 257 0.0 0.0 0.00 0.00 0.00 89 1012.2
20190618082827 58 257 0.0 0.0 0.00 0.00 0.00 89 1012.2
20190618082328 58 257 0.0 0.0 0.00 0.00 0.00 88 1013.0
20190618081831 58 257 0.0 0.0 0.00 0.00 0.00 88 1013.0
20190618081331 59 257 0.0 0.0 0.00 0.00 0.00 88 1013.0
20190618080834 59 257 0.0 0.0 0.00 0.00 0.00 89 1012.3
20190618080334 59 257 0.0 0.0 0.00 0.00 0.00 89 1012.3
20190618075837 59 257 0.0 0.0 0.00 0.00 0.00 89 1012.3
20190618075319 59 257 0.0 0.0 0.00 0.00 0.00 89 1012.6
20190618074821 59 257 0.0 0.0 0.00 0.00 0.00 88 1012.6
20190618074323 59 257 0.0 0.0 0.00 0.00 0.00 88 1012.6
20190618073829 59 257 0.0 0.0 0.00 0.00 0.00 88 1012.3
20190618073330 59 257 0.0 0.0 0.00 0.00 0.00 88 1012.3
20190618072836 59 257 0.0 0.0 0.00 0.00 0.00 88 1012.3
20190618072320 59 257 0.0 0.0 0.00 0.00 0.00 87 1012.2
20190618071823 59 257 0.0 0.0 0.00 0.00 0.00 87 1012.2
20190618071325 59 257 0.0 0.0 0.00 0.00 0.00 88 1012.2
20190618070826 59 257 0.0 0.0 0.00 0.00 0.00 88 1012.5
20190618070328 59 257 0.0 0.0 0.00 0.00 0.00 87 1012.5
20190618065827 59 257 0.0 0.0 0.00 0.00 0.00 87 1012.5
20190618065330 59 257 0.0 0.0 0.00 0.00 0.00 87 1012.6
20190618064834 60 257 0.0 0.0 0.00 0.00 0.00 87 1012.6
20190618064319 60 257 0.0 0.0 0.00 0.00 0.00 87 1012.6
20190618063820 60 257 0.0 0.0 0.00 0.00 0.00 86 1012.8
20190618063323 60 257 0.0 0.0 0.00 0.00 0.00 86 1012.8
20190618062824 60 257 0.0 0.0 0.00 0.00 0.00 86 1012.8
20190618062325 60 257 0.0 0.0 0.00 0.00 0.00 86 1012.8
20190618061829 60 257 0.0 0.0 0.00 0.00 0.00 86 1012.8
20190618061332 60 257 0.0 0.0 0.00 0.00 0.00 86 1012.8
20190618060835 60 257 0.0 0.0 0.00 0.00 0.00 86 1013.0
20190618060337 60 257 0.0 0.0 0.00 0.00 0.00 85 1013.0
20190618055820 60 257 0.0 0.0 0.00 0.00 0.00 85 1013.0
20190618055323 60 257 0.0 0.0 0.00 0.00 0.00 85 1013.2
20190618054827 60 257 0.0 0.0 0.00 0.00 0.00 85 1013.2
20190618054332 61 257 0.0 0.0 0.00 0.00 0.00 85 1013.2
20190618053835 61 257 0.0 0.0 0.00 0.00 0.00 85 1013.4
20190618053320 61 257 0.0 0.0 0.00 0.00 0.00 84 1013.4
20190618052822 61 257 0.0 0.0 0.00 0.00 0.00 84 1013.4
20190618052322 61 257 0.0 0.0 0.00 0.00 0.00 84 1013.4
20190618051828 61 257 0.0 0.0 0.00 0.00 0.00 84 1013.4
20190618051330 61 257 0.0 0.0 0.00 0.00 0.00 83 1013.4
20190618050831 61 257 0.0 0.0 0.00 0.00 0.00 83 1013.4
20190618050334 61 257 0.0 0.0 0.00 0.00 0.00 82 1013.4
20190618045836 62 257 0.0 0.0 0.00 0.00 0.00 82 1013.4
20190618045337 62 257 0.0 0.0 0.00 0.00 0.00 82 1013.4
20190618044822 62 257 0.0 0.0 0.00 0.00 0.00 82 1013.4
20190618044325 62 257 0.0 0.0 0.00 0.00 0.00 81 1013.4
20190618043826 62 257 0.0 0.0 0.00 0.00 0.00 81 1012.9
20190618043332 63 272 0.0 0.0 0.00 0.00 0.00 80 1012.9
20190618042835 63 263 0.0 1.0 0.00 0.00 0.00 80 1012.9
20190618042337 63 263 0.0 1.0 0.00 0.00 0.00 80 1012.7
20190618041820 63 262 0.0 0.0 0.00 0.00 0.00 79 1012.7
20190618041320 64 262 0.0 0.0 0.00 0.00 0.00 79 1012.7
20190618040822 64 262 0.0 1.0 0.00 0.00 0.00 79 1012.6
20190618040325 64 262 0.0 1.0 0.00 0.00 0.00 79 1012.6
20190618035828 64 262 1.0 1.0 0.00 0.00 0.00 79 1012.6
20190618035331 64 249 0.0 3.0 0.00 0.00 0.00 79 1012.3
20190618034838 65 249 0.0 3.0 0.00 0.00 0.00 78 1012.3
20190618034321 65 257 1.0 4.0 0.00 0.00 0.00 78 1012.3
20190618033826 65 275 1.0 4.0 0.00 0.00 0.00 77 1012.2
20190618033331 65 268 0.0 2.0 0.00 0.00 0.00 76 1012.2
20190618032834 66 249 1.0 2.0 0.00 0.00 0.00 76 1012.2
20190618032337 66 230 1.0 2.0 0.00 0.00 0.00 75 1012.2
20190618031839 66 234 0.0 3.0 0.00 0.00 0.00 75 1012.2
20190618031320 66 218 0.0 4.0 0.00 0.00 0.00 74 1012.2
20190618030822 66 270 1.0 6.0 0.00 0.00 0.00 74 1012.1
20190618030325 67 248 1.0 6.0 0.00 0.00 0.00 73 1012.1
20190618025827 67 281 2.0 7.0 0.00 0.00 0.00 72 1012.1
20190618025332 68 279 3.0 7.0 0.00 0.00 0.00 71 1011.8
20190618024834 68 258 2.0 9.0 0.00 0.00 0.00 70 1011.8
20190618024335 69 250 2.0 9.0 0.00 0.00 0.00 70 1011.8
20190618023837 69 279 2.0 7.0 0.00 0.00 0.00 69 1011.8
20190618023339 70 264 3.0 7.0 0.00 0.00 0.00 68 1011.8
20190618022821 70 275 2.0 9.0 0.00 0.00 0.00 68 1011.8
20190618022327 70 216 4.0 9.0 0.00 0.00 0.00 67 1011.6
20190618021832 71 265 3.0 7.0 0.00 0.00 0.00 66 1011.6
20190618021334 71 288 4.0 7.0 0.00 0.00 0.00 65 1011.6
20190618020837 72 279 3.0 5.0 0.00 0.00 0.00 64 1011.6
20190618020339 72 194 2.0 6.0 0.00 0.00 0.00 64 1011.6
20190618015824 72 217 3.0 6.0 0.00 0.00 0.00 63 1011.6
20190618015326 72 217 3.0 6.0 0.00 0.00 0.00 63 1011.5
20190618014828 73 206 2.0 6.0 0.00 0.00 0.00 63 1011.5
20190618014330 73 229 3.0 7.0 0.00 0.00 0.00 62 1011.5
20190618013832 73 228 3.0 7.0 0.00 0.00 0.00 62 1011.2
20190618013335 73 246 3.0 9.0 0.00 0.00 0.00 62 1011.2
20190618012837 73 224 4.0 10.0 0.00 0.00 0.00 61 1011.2
20190618012319 74 236 3.0 10.0 0.00 0.00 0.00 61 1011.1
20190618011824 74 207 3.0 9.0 0.00 0.00 0.00 61 1011.1
20190618011328 74 257 4.0 10.0 0.00 0.00 0.00 60 1011.1